パンスターズ彗星

C/2020 K2 ( PanSTARRS )

English version
Home page
Updated on October 9, 2020

---------------------------------------------------------------------

・ プロフィール

発見日 2020年5月21日
発見光度 20.5等
発見者 Pan-STARRS 1 telescope (Haleakala)

・ 写真集

・ 軌道要素

Epoch 2020 Aug. 19.0 TT = JDT 2459080.5
T 2020 Aug. 4.37296 TT                                  Rudenko
q   8.8784946            (2000.0)            P               Q
z  -0.0001834      Peri.   67.25478     +0.10582085     -0.29686561
 +/-0.0000097      Node   288.34230     -0.70831164     +0.64735314
e   1.0016286      Incl.   91.03750     +0.69792304     +0.70200052
From 74 observations 2020 May 21-Sept. 23, mean residual 0".4.

・ 光度変化

        m1 = 6.0 + 5 logΔ + 10.0 log r

---------------------------------------------------------------------

軌道要素はM.P.E.C. 2020-S188に掲載されたものです。
光度グラフはComet for Windowsで作成したものです。

---------------------------------------------------------------------

Copyright(C) Seiichi Yoshida (comet@aerith.net). All rights reserved.